RH
11 11 13 14 15 16 16 17 16 17 17 17 18 17 18 17 17 17 17 17 17 18 18 18 21 23 22 20 19 16 15 15 16 19 21 25 24 22 18 15 17 16 17 16 15 15 14 15 14 16 14 17 22 23 28 28 30 29 21 17 18 23 25 24 28 29 27 29 37 42 39 36 36 38 39 36 37 37 38 38 31 28 30 28 31 35 37 34
12 13 14 15 16 17 17 18 18 18 18 18 18 18 17 17 17 16 17 17 17 18 19 19 20 22 21 20 20 16 16 16 16 20 22 24 22 20 18 15 17 15 15 15 14 15 13 14 16 16 14 16 22 23 26 26 28 29 22 17 19 24 26 25 26 29 29 28 35 40 35 33 32 32 33 32 32 36 37 35 33 31 29 28 32 36 38 35
13 14 15 16 16 18 18 19 19 19 19 18 18 17 17 16 16 16 17 17 17 18 19 20 20 20 19 19 20 16 17 17 15 19 21 22 21 20 18 16 17 14 14 13 13 14 13 15 15 16 15 17 22 24 26 27 28 30 25 18 21 28 27 27 29 31 33 32 35 39 38 37 33 30 32 34 32 35 37 32 32 33 28 25 28 34 39 37
15 15 16 16 17 18 19 19 19 19 18 17 17 16 16 16 16 17 17 17 18 18 19 19 18 19 20 19 18 17 19 17 16 20 22 22 21 19 17 16 16 14 14 13 12 14 14 15 16 19 19 20 26 26 26 31 30 29 30 24 24 28 25 28 31 33 39 37 32 36 42 39 33 34 34 34 33 33 34 29 30 31 25 23 25 32 37 34
15 15 16 16 18 19 19 19 18 18 17 16 16 15 16 16 17 18 18 19 19 19 19 19 18 19 20 19 18 18 19 17 18 22 22 22 21 18 16 16 16 15 15 13 13 13 12 13 17 23 23 22 27 25 25 31 32 31 37 34 29 30 27 32 36 38 44 38 34 37 38 36 34 36 35 35 33 28 28 29 30 29 23 22 24 30 35 33
14 15 16 17 18 19 19 18 17 16 16 16 16 16 16 17 18 20 21 21 20 19 19 20 20 19 18 18 17 17 19 20 22 24 23 22 20 19 17 16 16 16 15 14 13 12 13 14 16 24 26 26 28 28 28 32 32 29 33 37 35 35 34 37 41 44 46 37 36 38 33 34 36 35 36 39 34 27 30 33 34 33 31 32 30 30 33 32
14 16 17 18 18 18 17 16 16 16 16 17 16 16 17 18 20 21 23 23 21 19 18 20 20 20 18 17 18 19 22 23 24 25 23 22 20 20 19 17 17 15 14 14 13 13 14 13 17 27 29 28 30 31 33 32 33 33 34 39 39 39 40 41 44 46 45 37 36 38 33 34 36 36 40 41 33 30 33 36 42 44 43 46 40 32 32 32
16 17 17 18 18 17 16 16 16 17 16 17 16 17 17 19 19 20 21 20 20 19 18 19 19 20 18 18 22 22 24 24 25 25 22 21 20 20 20 17 16 13 13 15 14 15 15 15 22 28 28 31 31 32 36 32 32 39 40 40 38 39 40 41 42 42 41 38 37 37 33 32 32 36 41 37 29 27 28 32 42 49 49 50 44 35 34 32
17 18 17 17 16 15 16 16 17 16 16 16 16 17 17 18 19 19 20 19 19 18 18 18 18 19 17 19 24 23 24 26 26 24 20 20 20 20 20 17 16 13 14 18 17 15 15 20 26 23 25 32 31 35 42 35 31 41 44 39 37 38 40 39 38 38 37 35 36 36 32 32 33 37 36 28 24 24 25 27 33 40 41 41 40 36 35 34
17 16 16 15 15 16 16 16 15 15 16 16 16 17 18 18 18 19 20 20 20 19 17 17 18 18 17 21 24 23 25 26 26 23 19 19 19 17 17 15 15 14 17 21 21 19 16 19 21 19 25 32 35 40 43 40 36 42 43 39 38 37 37 37 35 36 35 34 35 34 31 31 34 38 30 23 28 29 28 30 31 35 32 29 32 33 34 35
15 15 15 15 16 16 15 15 15 15 15 15 16 17 17 17 17 18 20 21 20 19 18 18 18 18 19 22 25 25 26 26 26 23 19 17 15 15 15 14 14 14 18 21 24 23 18 20 22 24 27 29 36 40 41 43 38 39 41 39 39 36 34 34 33 34 33 33 34 34 33 31 37 42 31 23 30 32 30 30 31 33 29 25 26 27 30 33
14 15 15 16 16 15 14 16 15 15 15 15 16 16 17 17 17 17 20 21 19 19 18 18 19 20 23 24 25 27 26 26 25 25 22 18 17 19 18 16 16 15 17 22 26 24 21 23 25 30 31 29 36 38 38 42 39 38 39 37 36 34 34 33 32 34 32 32 35 38 35 32 39 39 26 23 28 31 33 31 28 30 28 26 25 24 26 28
15 15 15 15 14 14 15 16 15 14 15 15 16 16 16 16 17 18 20 20 19 19 18 18 18 19 25 28 27 26 25 25 24 24 24 21 21 21 20 19 19 19 18 22 27 26 23 25 27 34 37 34 39 40 35 39 40 39 39 35 30 27 31 33 32 33 33 35 39 39 31 24 29 29 22 25 30 32 32 27 25 26 27 27 26 25 25 26
15 14 15 14 13 14 16 16 15 14 14 15 15 15 16 17 18 19 19 19 18 19 18 19 19 20 26 27 25 24 25 25 23 23 23 23 23 22 22 21 20 21 20 22 27 27 25 27 28 34 39 37 39 40 37 38 38 39 39 35 28 23 27 33 36 34 32 36 39 37 31 22 20 20 22 27 30 31 28 24 23 24 26 27 26 27 26 25
14 15 14 11 12 15 17 16 15 14 14 15 15 17 18 18 18 17 18 19 18 19 19 19 19 22 28 26 23 23 24 23 24 25 23 23 22 21 22 21 22 22 22 23 24 25 26 28 28 29 35 38 37 37 35 34 33 37 35 28 27 26 27 34 39 38 33 34 37 36 32 25 20 19 25 32 32 33 28 23 23 23 26 27 26 27 26 25
14 14 12 10 13 15 16 17 17 17 16 17 18 18 18 17 17 17 17 18 19 18 18 19 19 22 28 27 23 23 23 24 25 25 23 23 22 21 22 22 22 21 21 23 23 25 26 30 37 37 35 35 36 32 27 27 28 32 30 24 29 29 26 31 40 44 40 36 37 37 35 29 23 22 29 36 35 34 29 24 24 24 25 26 26 27 27 27
13 13 10 10 13 15 17 17 18 19 18 19 18 17 17 17 17 16 17 18 18 18 17 19 20 21 26 25 22 22 24 24 24 24 24 23 22 21 21 21 23 23 22 22 21 25 27 34 43 40 34 35 39 34 24 23 22 26 27 25 31 32 27 29 37 46 45 41 39 38 40 34 25 22 26 31 33 34 30 26 25 25 26 26 27 28 28 28
12 10 8 11 14 15 17 17 17 17 17 18 17 16 17 18 18 17 18 16 16 17 17 21 22 23 27 23 23 24 24 24 24 25 24 23 23 21 21 23 25 24 24 22 21 26 29 33 35 30 29 34 39 35 27 26 27 27 28 26 29 33 32 31 37 45 46 47 44 38 39 35 27 25 23 22 27 31 29 27 27 25 25 26 28 29 28 28
10 9 8 11 13 15 17 16 16 15 16 16 15 16 15 16 17 17 18 19 23 25 23 27 29 29 29 24 23 24 23 24 24 24 25 25 24 22 22 25 27 26 27 25 23 33 36 32 31 30 31 36 42 43 39 37 38 38 35 32 32 32 32 33 40 50 53 50 46 41 40 35 27 25 23 21 25 29 29 27 28 27 27 27 28 29 30 30
9 7 8 11 13 15 16 15 15 15 15 15 14 15 16 23 24 23 25 27 33 37 34 35 34 29 25 23 24 23 23 23 22 23 25 25 26 23 22 26 28 27 34 38 31 37 42 34 35 37 37 43 48 50 51 49 48 46 39 35 35 34 32 35 43 53 57 47 37 38 40 36 31 28 25 23 25 29 29 29 29 28 28 29 29 30 32 31
7 7 10 13 13 15 15 14 14 14 15 14 14 18 26 35 31 25 30 32 32 34 34 33 30 25 23 24 26 27 25 20 18 21 23 27 27 21 21 30 30 23 38 55 46 42 41 33 36 44 46 51 53 54 57 56 53 44 37 35 35 35 33 37 46 51 51 42 32 37 41 37 32 29 25 24 26 28 26 27 27 26 27 29 30 33 33 33
7 7 11 13 14 15 15 14 14 15 16 15 16 25 32 32 24 20 26 29 26 26 30 31 27 24 25 25 26 28 24 21 19 18 23 28 23 22 28 32 31 29 41 51 39 32 34 32 39 49 52 54 55 57 57 57 52 39 34 36 32 34 35 38 48 51 49 44 35 38 43 36 29 26 24 22 22 24 24 26 27 26 28 28 28 31 34 34
6 8 11 13 14 15 15 15 15 16 16 16 19 25 26 22 20 22 24 24 24 28 31 30 28 26 24 21 24 25 22 27 27 19 24 30 28 36 39 33 34 36 39 40 30 23 24 32 47 54 53 51 51 54 54 49 43 34 33 34 30 37 39 34 43 49 47 46 42 44 46 37 29 25 23 24 26 28 32 34 36 37 33 29 28 32 36 34
6 7 9 13 14 15 17 17 17 16 15 17 19 21 21 22 23 23 26 29 27 27 28 28 30 28 25 23 25 24 23 30 30 21 25 34 37 41 41 42 40 33 37 45 40 30 30 41 53 55 53 51 47 50 51 40 32 33 36 36 32 37 40 35 41 46 43 44 46 46 38 28 26 25 22 29 36 35 37 38 36 40 39 36 38 38 38 38
6 7 10 14 14 16 17 16 18 17 15 18 19 21 23 24 25 21 26 32 25 23 25 25 25 23 23 24 24 31 34 31 28 25 28 34 40 42 44 51 41 25 37 48 40 30 36 51 56 50 48 48 46 44 44 38 31 32 34 36 34 34 40 41 43 44 35 35 44 44 30 19 21 20 18 27 33 28 33 36 28 27 32 37 41 37 35 38
6 7 12 15 15 16 16 17 19 17 17 19 19 24 25 24 26 21 26 33 23 21 25 22 19 19 22 25 32 43 40 27 24 27 29 31 41 43 39 44 40 35 45 45 36 32 40 53 54 48 46 46 43 38 40 42 33 28 35 41 42 42 45 46 46 44 33 29 41 46 34 25 22 16 19 31 32 25 28 31 27 23 25 33 37 34 32 33
6 7 12 15 15 15 14 17 19 19 23 21 18 24 25 24 24 19 25 30 20 19 25 22 19 17 22 29 37 38 29 25 27 28 30 29 39 43 32 33 37 45 57 45 29 33 41 47 47 46 45 40 36 33 39 43 31 30 44 49 46 47 48 48 47 43 36 33 40 45 37 32 31 24 27 35 29 23 23 24 24 22 20 25 30 30 32 33
6 7 12 15 14 13 14 15 15 19 24 21 19 23 24 23 22 22 26 24 18 19 23 23 19 17 26 33 36 35 32 35 30 23 29 29 34 41 34 36 38 44 60 44 19 26 37 38 39 40 37 33 31 33 42 42 34 40 52 52 49 50 49 49 48 42 41 37 33 38 37 32 29 23 28 36 27 20 22 20 18 17 18 23 27 28 30 33
6 6 10 13 13 14 14 14 16 20 21 20 21 22 23 21 20 27 30 20 15 18 19 23 19 22 38 38 36 41 38 39 35 28 32 29 28 35 36 46 49 44 53 45 26 28 38 43 46 40 31 30 33 40 46 43 41 51 57 53 53 53 48 46 45 41 41 37 30 33 36 30 21 15 20 28 24 20 22 21 20 22 25 26 29 31 31 32
6 5 9 11 13 13 12 15 19 20 21 21 22 21 20 21 23 29 29 18 16 23 26 28 26 31 43 38 33 40 35 36 44 41 39 35 30 36 44 51 47 35 39 45 36 32 43 54 56 48 40 39 40 48 55 51 49 57 55 48 47 46 43 41 39 38 36 32 32 37 40 33 22 15 14 20 24 23 20 20 23 25 26 25 27 31 32 34
6 6 9 11 13 13 13 19 22 21 22 20 20 21 20 24 30 28 23 18 19 28 31 29 33 38 42 35 28 34 35 35 41 39 35 34 32 36 40 39 35 29 26 32 30 30 43 47 45 52 55 48 44 48 58 60 58 57 48 40 36 32 33 33 32 34 27 22 33 42 42 37 28 19 16 22 33 35 28 26 26 25 24 25 27 30 32 36
8 9 11 13 14 13 15 23 24 22 22 19 20 25 23 26 29 23 25 24 17 23 27 28 35 39 39 34 26 33 38 32 32 34 34 32 30 36 38 34 33 26 17 23 27 25 35 38 36 47 53 48 42 38 46 55 54 49 42 36 30 23 24 25 22 25 21 22 39 45 38 35 28 20 21 26 30 33 35 36 33 29 27 27 29 31 34 38
12 12 12 15 15 14 18 23 23 22 21 19 21 30 32 28 23 24 31 28 19 25 33 34 36 36 35 29 24 33 36 26 28 35 37 34 28 33 41 44 42 27 15 24 27 20 23 32 34 36 40 47 45 31 29 35 37 36 35 34 29 22 26 28 22 24 24 25 38 42 38 35 25 19 24 26 24 27 34 38 37 35 32 30 31 36 42 46
17 14 14 17 17 20 24 24 23 23 20 19 26 37 36 26 22 27 30 26 25 30 35 37 34 29 29 25 25 35 31 25 31 32 30 27 22 25 30 37 42 34 25 26 28 26 21 20 27 31 36 45 46 41 38 33 32 38 40 38 32 26 29 30 24 26 29 31 39 41 39 34 23 20 25 24 23 27 28 29 33 36 37 38 41 46 49 48
18 16 16 20 23 26 28 25 23 21 16 18 32 38 30 23 23 26 27 26 28 30 31 34 30 20 21 24 30 38 30 25 30 28 26 24 22 25 26 30 38 38 31 24 26 32 22 13 27 40 45 46 45 51 54 39 30 42 46 38 35 33 28 29 34 38 44 48 48 43 38 30 22 21 24 23 25 27 27 28 33 37 39 41 45 46 43 39
15 18 20 24 28 28 26 25 22 19 19 25 35 33 26 28 25 25 35 36 31 33 30 26 25 20 21 23 28 36 33 29 30 24 23 28 29 31 31 35 44 44 34 24 23 27 19 16 29 40 47 51 50 52 55 42 30 36 40 35 41 45 34 33 41 46 52 52 40 35 34 28 22 20 21 23 24 24 26 28 29 32 32 32 36 37 34 33
13 17 21 24 29 27 23 23 19 18 24 32 38 33 29 33 33 38 51 49 43 42 30 19 22 24 25 22 21 31 32 28 29 22 18 25 29 30 33 37 46 50 43 32 27 27 25 23 26 32 39 48 58 57 54 53 43 32 33 36 43 49 41 36 39 39 42 42 32 32 38 32 25 22 20 20 18 16 17 20 22 24 22 21 25 27 28 28
15 18 23 23 24 25 22 19 18 19 27 40 48 43 36 39 47 55 58 54 51 44 27 21 25 26 28 25 20 32 37 24 21 22 19 21 24 29 34 35 43 55 55 46 34 30 32 27 24 38 45 43 51 50 43 52 55 44 42 41 39 40 33 31 36 35 34 37 33 33 41 39 30 24 21 17 14 11 11 13 16 16 14 16 21 24 26 28
16 22 28 23 19 21 19 15 18 23 28 39 47 46 41 44 56 67 69 63 54 41 30 27 30 27 28 28 23 32 39 28 21 22 19 20 25 30 35 34 40 55 59 51 39 33 33 26 23 40 48 38 34 33 29 38 50 53 50 45 41 39 33 30 36 35 32 35 37 36 35 29 24 25 22 17 13 11 11 13 15 15 15 18 22 25 26 27
22 25 23 18 18 21 16 13 23 33 37 43 45 44 45 46 54 71 86 80 54 37 35 31 29 28 26 29 29 33 40 37 31 26 21 26 26 26 40 44 37 48 59 53 45 39 33 28 23 28 34 30 24 27 28 28 35 42 43 44 46 45 42 39 39 41 41 35 35 41 37 21 18 25 21 15 13 12 14 18 19 20 20 20 22 24 25 26
27 27 19 17 20 20 16 23 43 52 49 45 40 45 56 54 49 62 87 92 66 46 43 37 33 31 27 27 28 34 40 39 38 33 25 30 25 20 50 68 53 49 52 43 41 41 32 28 30 30 27 23 22 32 40 37 36 37 34 37 39 40 43 39 38 50 59 50 40 42 40 27 21 23 19 15 15 15 19 25 25 23 22 22 22 23 24 26
25 25 20 17 19 19 19 35 60 61 51 47 44 54 71 65 51 55 71 79 70 57 49 45 43 38 31 29 31 39 43 37 38 34 25 29 22 18 56 93 86 68 52 40 45 54 44 32 36 38 28 23 31 45 54 54 50 44 40 41 40 41 41 35 36 46 54 59 56 50 49 38 22 19 20 17 18 21 25 29 28 25 22 22 22 21 23 26
22 19 19 18 17 21 23 34 54 54 50 57 57 62 73 66 53 54 58 61 60 52 44 45 46 41 38 39 39 39 39 33 31 28 26 31 32 43 76 102 95 72 51 43 49 56 51 38 37 36 24 22 34 42 49 58 57 45 41 46 46 45 49 48 45 43 41 46 48 48 53 42 20 18 22 18 18 22 23 25 24 22 21 21 21 21 24 25
25 18 21 20 12 18 26 29 39 49 52 53 48 50 60 63 61 54 49 57 65 54 42 44 46 42 46 52 45 37 36 32 26 27 33 35 45 74 98 100 92 72 55 56 59 53 43 32 32 35 29 26 27 26 32 45 48 36 31 45 54 58 69 69 55 47 45 43 38 42 49 36 17 17 18 15 17 17 17 19 18 19 20 20 21 23 25 26
27 21 23 22 15 23 37 36 36 48 56 50 41 40 43 52 70 74 60 60 74 66 48 45 49 51 56 57 48 43 42 34 25 31 43 40 46 79 101 97 94 88 79 88 93 71 45 32 31 32 34 34 30 26 25 28 33 30 29 46 61 68 72 61 44 44 48 45 42 42 41 29 17 16 16 16 18 17 17 18 17 18 21 22 25 27 26 26
27 25 29 33 29 31 43 48 45 45 49 46 39 36 34 32 53 81 74 56 66 74 60 52 56 54 51 45 37 40 47 43 37 43 51 45 39 66 97 100 96 97 95 101 100 72 47 44 40 32 33 35 31 28 24 24 30 34 37 48 63 74 74 57 45 47 45 43 45 39 37 36 28 20 19 18 17 18 19 18 18 21 23 26 29 29 26 23
30 31 35 38 34 32 37 43 46 43 40 40 35 32 38 32 33 54 60 52 67 79 63 52 52 43 35 35 31 32 43 46 44 47 53 55 48 56 84 97 96 97 98 99 92 64 44 47 50 47 46 41 35 32 28 30 35 36 41 49 57 71 78 66 55 48 38 41 44 33 30 38 31 21 20 20 19 19 19 19 23 24 25 28 28 26 24 22
31 32 36 36 34 36 33 31 42 45 39 46 49 40 38 37 31 34 41 47 63 66 47 36 40 39 39 42 33 29 35 35 39 46 47 55 60 51 58 81 95 97 91 84 80 63 44 45 55 61 58 45 39 38 33 34 37 37 45 50 48 59 74 72 60 48 41 45 44 32 29 33 29 24 23 22 21 21 22 24 26 26 26 27 26 24 23 22
31 33 39 41 43 53 58 53 52 44 35 46 52 42 36 35 32 35 38 37 38 42 36 27 29 41 54 54 39 32 35 31 38 53 49 48 57 50 44 57 74 84 78 66 69 66 45 45 69 80 69 50 40 37 36 40 44 44 47 47 40 44 57 64 58 47 44 45 40 35 36 35 31 28 26 25 24 25 26 26 24 25 26 26 26 25 24 24
32 33 38 41 46 62 76 72 54 35 33 43 40 36 43 40 36 43 46 37 26 29 39 36 32 48 65 63 47 35 36 35 36 47 50 49 54 54 47 43 47 64 71 62 66 64 43 47 75 80 64 49 39 36 38 41 44 44 40 37 35 36 42 52 56 52 51 53 46 42 46 45 36 30 28 27 26 25 24 23 23 25 27 28 28 26 25 26
32 30 30 30 35 48 56 54 45 32 31 37 36 38 41 37 43 50 48 52 50 38 41 44 40 52 68 66 52 40 42 47 43 47 55 55 55 54 49 46 47 56 65 66 67 57 41 46 60 58 53 46 34 33 36 35 38 44 42 37 35 32 33 40 46 49 52 55 50 46 47 42 29 24 27 25 23 23 22 24 27 29 29 30 29 28 28 28
34 29 29 28 31 42 47 41 36 31 31 42 51 51 44 45 62 56 36 53 78 71 65 63 52 51 55 49 46 53 63 68 67 73 82 82 79 75 64 60 61 57 57 66 72 68 58 49 45 49 52 43 30 32 37 36 36 35 33 32 27 22 24 27 30 35 40 41 42 40 35 25 18 22 28 26 24 24 24 27 30 31 33 31 29 30 30 30
Wind_Speed
4 4 5 5 6 6 6 6 5 5 5 4 3 3 2 1 2 3 4 5 5 5 6 6 3 3 6 3 4 6 2 11 18 20 16 13 18 12 6 4 5 3 1 2 3 3 2 1 5 5 3 5 4 1 2 3 2 2 1 1 3 3 3 6 9 6 1 8 12 9 12 11 8 7 3 2 6 8 5 7 9 8 9 10 5 4 6 7
5 6 6 6 6 6 5 5 5 5 5 4 2 1 1 1 3 4 5 6 5 5 6 5 5 8 10 6 4 6 5 2 13 19 15 17 17 9 4 4 6 3 1 2 4 4 2 2 3 4 3 3 3 2 1 2 3 1 0 1 2 2 1 2 5 5 1 7 12 10 11 9 6 7 6 6 9 10 10 10 11 11 12 13 10 8 8 9
6 6 6 5 5 5 5 5 5 4 3 2 1 0 1 3 5 5 6 6 5 4 3 5 7 9 9 6 6 8 6 1 8 13 16 19 14 6 4 4 5 4 3 1 3 3 2 5 4 3 3 3 3 1 2 4 3 1 0 1 3 1 2 1 2 3 2 4 12 11 7 6 4 5 6 7 9 10 12 11 11 14 15 14 13 12 10 10
5 5 5 4 5 5 5 5 4 3 2 1 1 2 3 5 5 5 6 6 4 1 2 3 5 4 3 5 10 12 5 1 5 11 18 18 11 5 4 3 4 3 4 5 4 4 6 7 7 4 3 3 3 1 3 5 2 2 1 2 5 3 3 3 2 1 2 3 10 9 6 6 4 4 6 7 8 9 13 13 13 14 15 15 14 14 13 12
5 4 4 5 5 5 4 3 2 1 1 1 2 3 4 3 3 4 4 4 0 5 9 11 10 7 6 7 12 12 4 0 4 14 19 16 9 4 3 4 4 1 2 3 5 6 6 5 4 4 4 2 2 1 3 5 2 4 2 2 4 2 2 3 1 0 1 3 7 9 8 6 3 5 8 9 9 7 6 10 13 13 13 12 13 15 14 14
4 4 5 5 4 4 2 1 1 1 1 2 2 3 3 3 4 5 4 2 6 10 12 14 13 13 15 11 10 7 1 1 7 18 19 13 6 3 3 3 3 2 1 1 2 3 3 2 1 2 3 3 4 3 3 3 1 2 3 1 2 1 0 3 1 1 2 5 8 7 5 3 4 7 6 9 15 9 1 1 6 10 10 6 9 14 13 14
4 4 4 4 3 1 1 1 2 2 2 2 2 4 5 5 6 7 7 5 9 11 10 9 8 11 15 14 13 9 5 3 13 21 16 10 5 2 3 3 2 2 1 1 2 2 3 2 4 3 3 3 4 5 3 3 2 2 5 2 1 1 1 2 1 2 1 3 5 2 2 4 7 6 1 8 18 15 7 3 3 6 6 4 7 12 14 16
4 4 3 2 0 1 2 2 1 2 2 1 3 6 7 7 9 10 11 8 6 6 4 2 2 2 4 6 9 10 7 7 19 21 13 8 4 1 2 3 2 2 3 5 3 3 2 3 6 3 2 4 2 3 1 3 6 5 5 4 2 2 2 2 2 3 2 1 1 1 5 6 5 2 3 12 18 16 15 11 6 4 3 5 8 11 13 15
3 3 1 1 1 1 1 1 2 2 2 2 5 8 8 8 10 11 12 9 4 3 3 2 1 1 2 2 2 7 6 12 18 15 9 7 5 2 1 2 1 1 4 7 4 2 1 1 3 2 4 5 2 2 2 1 3 3 5 5 5 5 4 4 4 4 2 2 1 5 7 5 3 2 8 17 16 11 11 12 9 7 6 8 10 11 13 14
2 2 1 1 1 0 1 3 3 2 1 4 8 9 9 9 8 7 10 11 6 3 5 3 2 1 4 2 3 7 7 12 14 10 6 7 5 4 5 5 4 4 6 8 6 3 1 4 6 6 9 6 3 2 3 1 3 6 8 7 7 5 4 3 4 4 2 2 1 6 8 5 3 2 9 9 4 2 5 8 9 9 11 13 12 13 15 16
2 2 2 1 1 1 4 4 3 1 2 5 9 10 9 8 4 5 9 16 17 16 14 12 13 15 15 11 9 8 6 10 16 16 11 8 8 10 11 10 10 12 13 12 11 9 8 11 10 6 4 4 5 6 4 3 5 7 7 8 7 4 4 3 4 3 1 1 1 4 9 8 5 4 13 9 2 3 4 7 8 10 13 15 15 15 14 16
3 4 3 2 0 3 4 3 1 2 4 7 9 9 7 4 2 5 9 13 17 19 17 14 16 20 23 18 9 4 7 10 14 18 19 15 14 14 11 9 8 10 11 11 8 9 12 10 7 5 2 4 5 5 5 2 2 4 3 4 6 4 4 3 3 2 2 1 1 3 7 8 9 11 17 9 2 2 4 7 8 9 11 13 14 13 12 15
5 5 4 2 2 3 2 2 2 4 5 7 7 5 2 1 2 7 10 10 10 9 7 6 6 8 12 11 6 4 8 11 11 15 21 22 23 21 18 15 13 12 14 16 11 8 9 6 9 10 4 3 3 3 6 3 1 2 2 1 3 3 3 3 2 1 3 1 1 3 6 6 8 13 13 3 2 2 5 9 9 9 9 10 11 11 12 14
5 5 3 1 2 1 2 3 4 5 6 6 5 2 1 2 4 9 11 12 12 12 12 10 9 11 12 6 4 7 9 10 12 14 16 18 19 21 23 22 22 21 21 23 18 15 14 12 15 13 4 4 5 4 5 2 1 1 2 0 1 2 2 3 2 2 4 2 0 3 5 7 6 9 7 3 3 4 8 11 10 10 9 9 10 10 12 14
5 5 2 3 0 3 4 4 5 6 6 5 3 3 6 7 9 12 14 16 16 15 14 12 10 11 10 5 3 8 10 10 13 15 12 10 10 12 14 16 18 19 19 19 16 14 12 10 11 8 3 2 3 4 3 2 1 1 2 1 1 2 1 3 2 2 3 1 2 4 5 8 10 7 2 3 3 6 9 12 11 11 10 9 10 10 11 13
5 4 2 1 4 5 5 6 7 7 7 6 7 9 13 15 15 15 15 15 14 12 11 12 11 9 7 4 2 6 8 9 11 12 10 9 7 4 3 5 7 9 12 13 11 10 9 9 6 3 3 1 0 1 2 2 1 1 2 1 1 2 2 1 3 1 2 0 4 7 6 7 8 4 2 3 4 6 8 11 12 12 11 11 10 10 11 11
4 2 1 3 7 6 7 9 9 9 8 9 11 12 13 13 15 16 15 15 14 12 12 11 9 9 6 2 1 4 4 6 8 8 7 7 8 7 5 2 1 1 4 7 9 7 7 7 2 0 3 2 1 1 1 1 1 1 1 1 1 2 3 2 2 2 0 3 6 7 8 13 13 10 6 6 6 5 9 13 14 13 12 11 10 10 11 11
3 2 1 7 8 8 11 13 14 15 16 16 17 17 16 13 13 15 13 13 9 8 10 8 5 5 5 3 2 4 6 6 7 9 5 3 6 9 10 5 2 3 4 1 8 8 5 3 0 1 4 3 4 3 1 1 2 1 1 2 1 2 3 4 2 1 0 4 7 7 10 17 19 17 16 13 9 9 13 15 14 13 13 12 10 10 11 11
3 1 4 9 9 10 14 17 20 24 24 22 21 21 21 20 19 17 16 12 5 2 4 4 5 3 4 3 4 5 5 5 5 9 8 4 4 4 8 7 2 1 1 0 6 6 3 2 2 2 3 4 5 3 2 3 3 2 2 2 4 4 5 5 1 1 1 4 8 11 12 16 19 18 18 15 9 10 14 13 12 12 11 11 10 10 10 10
3 3 8 11 11 13 16 20 24 24 17 11 9 10 10 10 12 10 13 14 5 3 4 2 3 5 5 1 4 6 3 2 2 10 13 9 5 3 4 6 2 6 5 1 3 4 2 3 4 2 3 4 4 2 2 3 3 2 1 2 4 5 6 4 1 2 1 4 9 10 11 16 18 19 19 15 8 9 14 14 12 12 10 9 9 9 9 10
4 6 11 12 13 15 17 20 22 18 6 4 2 3 2 1 4 3 1 6 3 4 4 2 2 6 4 1 5 7 3 1 7 13 17 11 4 2 5 5 2 6 5 1 1 2 1 4 4 2 3 3 2 1 1 3 3 2 2 3 4 4 7 4 2 1 1 3 7 5 9 16 17 19 19 16 11 12 14 14 13 12 10 8 8 10 10 8
5 9 13 13 14 17 18 19 18 11 3 5 4 7 4 6 12 11 5 5 4 4 2 2 4 5 2 1 8 9 2 4 10 14 19 14 5 2 3 4 6 5 3 1 1 0 3 4 3 2 0 1 2 2 2 3 3 2 1 3 4 2 6 5 2 1 1 3 6 5 9 16 18 20 20 18 15 13 11 11 11 9 8 8 8 8 8 8
7 11 14 14 15 18 18 17 15 7 4 9 16 15 13 15 15 9 4 5 3 2 1 3 4 5 4 4 11 11 2 5 6 11 20 14 4 3 2 5 7 3 3 4 1 2 4 3 1 1 2 1 2 1 2 4 3 3 2 3 5 3 3 4 1 2 2 4 6 8 11 14 16 16 15 13 11 8 5 8 9 7 8 9 8 7 7 9
9 13 15 14 16 18 16 14 12 5 8 17 20 16 15 12 6 1 1 3 2 2 2 2 2 4 4 4 11 9 4 4 2 8 18 12 2 2 2 4 4 3 4 6 4 4 4 3 2 3 2 1 1 1 2 4 3 2 4 4 6 4 4 6 4 5 5 5 3 7 10 9 6 5 4 2 2 4 3 5 8 8 10 9 8 8 9 10
11 14 16 15 16 16 13 11 8 6 9 14 16 15 12 6 2 2 0 1 2 1 1 2 2 5 4 5 12 6 2 3 1 4 11 9 3 2 1 1 2 3 1 3 3 4 3 2 1 1 0 1 2 2 2 3 3 1 3 4 6 7 7 8 7 7 6 3 2 3 7 5 1 3 5 1 1 4 2 3 8 8 8 7 7 10 10 9
13 16 17 17 17 16 12 8 7 7 6 6 10 11 7 3 3 3 0 2 3 2 3 2 1 6 6 6 11 4 2 2 2 3 7 8 4 1 2 0 1 2 1 1 2 1 2 2 0 1 1 2 3 3 2 3 3 1 1 0 3 4 6 8 6 4 4 3 1 1 5 7 6 8 5 2 4 6 2 4 8 7 6 5 6 8 7 6
15 18 19 19 19 17 11 6 8 8 2 3 9 10 5 1 5 4 1 2 4 2 4 5 3 7 7 5 7 3 1 3 2 2 7 8 4 1 0 2 1 2 1 1 0 2 2 2 2 0 2 3 4 3 3 2 2 1 1 1 1 3 6 5 4 5 4 6 2 3 3 6 8 6 1 3 6 7 4 3 5 4 4 4 5 6 7 7
17 20 21 20 20 18 10 4 8 7 2 3 10 11 6 2 5 3 1 3 3 1 2 4 4 6 7 5 6 3 1 4 2 2 6 8 5 1 0 3 1 2 2 2 2 2 2 2 2 2 3 3 2 1 2 4 2 3 2 1 2 3 5 3 3 5 2 5 4 4 3 4 7 5 2 0 5 5 4 2 1 4 6 6 6 6 7 8
17 21 22 20 20 16 8 3 6 6 4 5 8 9 5 3 3 0 2 3 2 1 1 3 5 5 7 6 4 4 2 2 2 4 7 5 6 3 2 2 3 4 2 1 1 1 1 0 1 2 2 1 1 2 2 4 2 2 1 2 2 2 2 2 3 3 2 4 4 2 1 4 7 6 1 1 2 3 3 2 3 5 6 7 8 8 8 7
16 20 21 20 18 13 5 2 4 6 7 8 7 6 3 3 1 1 4 2 1 2 0 2 4 4 7 4 2 5 4 2 2 5 4 2 4 6 3 1 1 4 1 1 2 1 1 1 1 1 1 2 2 2 1 1 2 1 2 4 4 4 2 2 2 2 3 4 2 3 1 3 6 7 3 2 0 0 2 3 4 5 7 8 8 8 8 7
16 19 20 18 15 11 4 3 6 8 9 8 6 2 1 2 1 3 4 1 1 3 1 2 2 3 6 4 2 5 4 3 5 5 5 3 4 6 2 1 1 1 0 0 1 1 1 2 2 1 2 2 1 1 1 1 1 1 3 4 4 3 3 2 2 2 4 4 2 2 3 4 5 6 3 2 4 2 3 4 6 6 8 8 7 7 7 6
16 18 18 14 11 8 3 4 7 8 8 7 4 1 1 1 3 3 1 2 1 2 2 1 2 3 5 2 2 6 4 3 5 5 4 3 3 5 4 4 3 2 2 2 2 2 1 2 1 1 2 2 3 3 1 2 1 2 4 4 5 4 1 2 2 2 4 2 3 1 4 4 8 10 8 9 11 8 6 6 7 8 9 9 8 8 6 5
14 15 15 10 7 6 7 8 8 7 7 5 2 2 3 3 4 2 2 2 2 2 1 1 3 3 4 3 3 5 2 1 5 3 1 1 2 3 3 3 3 2 3 2 3 5 1 2 1 0 1 2 3 4 2 1 1 3 3 3 5 5 4 4 3 3 5 2 2 1 3 5 8 8 8 10 12 8 5 8 8 8 10 10 9 7 6 7
12 11 12 11 9 10 10 9 8 6 4 2 1 2 5 4 2 1 2 1 1 2 1 1 4 2 1 2 3 4 1 1 4 3 1 1 1 2 2 2 4 2 2 1 1 3 3 1 1 0 0 1 1 2 3 3 3 2 2 2 4 3 3 5 3 4 7 5 1 1 1 5 4 3 4 7 7 6 6 8 7 8 9 8 7 7 7 8
14 12 13 15 13 12 11 7 6 4 2 3 3 3 5 3 1 2 0 1 2 2 1 1 3 2 1 2 1 2 1 1 3 2 3 3 2 2 2 3 5 3 2 2 1 0 2 2 1 1 2 1 1 1 0 3 3 1 1 2 3 2 3 3 2 2 4 5 3 3 3 6 4 7 9 6 5 7 8 6 5 7 6 4 6 8 6 6
18 18 17 17 14 10 8 6 4 2 2 2 4 4 3 1 1 0 1 2 2 3 3 1 2 3 2 2 1 2 0 1 3 2 2 2 0 1 1 1 2 2 2 2 1 0 2 3 1 1 2 1 0 1 1 3 2 1 2 2 1 2 3 4 2 1 1 4 4 2 4 6 5 8 7 3 5 6 5 4 4 6 6 4 6 7 6 7
20 20 18 19 15 8 7 5 2 2 2 3 5 4 1 0 1 2 2 2 1 2 3 1 2 3 2 2 2 4 2 1 1 2 1 1 1 1 1 1 1 1 2 2 1 0 3 5 1 1 2 1 1 1 1 1 3 2 2 1 1 1 2 2 3 2 3 6 4 2 7 8 5 5 3 5 7 7 8 8 5 5 7 7 8 9 10 10
11 12 14 22 17 8 6 4 3 4 4 5 5 4 1 1 1 1 1 1 1 1 2 2 1 1 0 1 2 4 5 3 3 2 1 1 1 2 0 0 2 1 2 3 2 1 2 6 2 1 2 1 2 3 2 1 1 4 3 1 1 3 3 2 2 3 4 6 5 4 7 6 4 4 3 7 11 13 14 12 8 10 12 11 10 11 12 11
4 5 6 19 16 9 7 4 5 6 5 5 4 3 1 0 1 1 1 0 1 1 1 1 0 0 2 1 1 2 3 3 3 2 1 2 2 1 1 1 1 1 1 2 2 1 1 4 2 2 1 2 1 3 2 1 2 1 2 0 1 2 4 3 1 2 4 6 6 4 6 6 4 4 2 9 13 16 16 14 12 14 14 12 9 10 11 10
3 3 3 17 13 8 10 13 10 7 5 4 1 2 0 1 1 1 1 1 2 1 1 1 1 0 1 1 1 1 2 2 2 2 1 2 1 2 3 2 1 1 0 1 1 1 1 2 4 1 1 4 2 1 1 2 1 2 3 2 2 2 2 3 2 1 2 5 6 3 5 9 5 2 2 11 15 15 14 12 13 14 14 14 11 10 11 11
3 4 4 17 9 2 7 15 10 5 3 3 1 3 1 1 1 1 1 1 1 1 2 0 1 2 1 2 1 0 2 2 1 1 1 1 1 1 3 2 2 2 1 1 1 1 1 2 5 5 4 6 4 2 1 2 1 3 4 3 3 3 2 5 5 0 1 3 4 3 6 10 8 0 3 11 13 14 12 9 11 14 15 15 13 12 11 10
5 4 6 15 7 4 6 8 4 2 3 2 2 2 2 2 2 1 1 1 0 1 1 2 2 2 1 2 1 0 2 1 1 1 1 0 1 1 2 2 3 2 2 1 1 1 2 2 4 6 7 6 3 2 1 2 2 3 4 2 1 1 2 6 6 2 1 1 1 2 5 10 10 3 4 10 9 9 8 6 9 13 13 14 13 13 12 11
3 3 7 14 6 0 6 7 1 3 4 1 0 1 1 2 1 0 1 2 0 1 1 1 1 1 1 1 1 1 1 1 1 1 1 1 2 1 3 2 3 2 1 1 1 1 1 2 3 6 7 3 1 3 2 1 1 3 4 3 2 2 0 3 4 2 3 5 4 4 5 9 11 5 4 10 10 8 8 7 9 11 12 13 14 14 13 13
1 4 6 17 10 2 3 6 2 2 2 1 1 2 0 1 1 1 1 2 2 1 1 1 0 1 1 1 0 0 1 1 0 1 1 2 0 3 4 2 3 1 0 1 1 1 1 1 2 6 7 3 1 1 0 1 2 4 4 3 3 1 3 1 2 1 4 9 9 9 8 9 12 10 10 16 17 14 13 11 11 11 10 12 14 14 13 13
3 3 2 16 21 10 4 2 2 4 2 2 3 3 1 1 2 2 1 2 1 1 1 1 0 1 0 1 0 0 1 2 1 1 1 2 1 3 4 3 2 1 1 2 2 2 2 2 2 4 6 6 6 6 6 4 4 4 5 2 2 3 3 2 4 4 6 7 6 7 9 11 14 17 18 20 18 16 16 15 13 11 11 12 13 12 12 12
2 4 1 6 13 10 4 2 2 4 3 2 3 2 2 2 1 1 1 1 1 1 1 1 1 0 0 1 1 1 1 1 0 1 2 3 2 2 3 3 1 0 2 3 2 1 1 2 4 6 7 6 7 10 9 6 7 11 13 9 1 5 4 3 3 6 7 4 5 11 14 14 17 18 18 19 17 17 16 16 15 15 14 13 11 11 13 14
2 3 2 2 3 4 4 4 4 3 1 1 2 2 3 2 1 0 1 0 1 0 0 0 0 1 1 2 2 1 2 1 1 1 2 3 2 1 1 1 1 2 4 2 2 1 1 3 4 5 9 11 11 15 15 10 11 15 17 14 5 5 5 5 8 11 7 3 8 14 15 14 15 16 18 19 17 17 17 16 16 15 14 13 13 15 19 21
3 2 1 1 2 2 3 4 4 4 4 3 1 1 3 3 2 2 0 0 1 0 1 1 2 3 1 1 2 2 3 2 2 2 2 2 2 2 0 1 0 2 3 1 2 1 2 4 1 2 8 11 12 15 17 14 13 13 13 15 12 6 7 10 16 17 9 7 12 15 16 16 15 16 19 19 17 17 17 14 12 13 14 16 18 20 22 23
3 4 1 2 3 2 1 2 2 3 6 4 2 2 4 4 5 2 1 1 1 1 2 2 4 4 0 1 1 2 2 3 3 3 1 1 2 2 2 0 1 0 1 1 1 0 2 3 1 1 7 12 14 13 12 12 9 9 12 14 14 14 11 12 18 19 14 15 19 19 20 19 17 17 19 17 16 15 12 10 11 15 18 18 19 19 19 20
2 3 1 2 4 2 0 1 1 2 4 3 2 2 2 2 3 2 1 2 3 2 3 4 6 4 0 1 1 3 2 2 5 5 1 1 2 1 1 1 0 1 1 1 1 1 2 1 1 0 5 10 12 8 7 7 6 9 16 16 14 15 12 10 14 14 11 14 16 17 17 15 15 15 15 13 12 12 12 13 15 17 16 16 16 17 18 19
6 4 5 6 4 2 2 1 1 2 3 3 2 2 1 2 2 1 1 0 2 2 3 5 6 3 1 1 3 4 2 3 6 6 2 2 3 2 1 2 2 2 1 0 1 1 2 2 1 2 5 9 7 5 9 10 8 10 14 15 13 10 7 8 8 7 7 7 8 8 9 10 10 9 9 12 14 16 16 16 14 13 14 14 15 16 18 19
7 5 4 5 4 2 2 1 1 2 3 2 2 1 2 2 1 2 1 1 0 1 1 2 3 2 1 3 4 3 3 4 6 6 3 3 4 4 3 3 2 2 2 1 0 1 1 3 1 1 4 8 6 7 11 13 10 6 5 7 8 7 9 11 9 7 9 7 4 6 8 11 12 11 11 14 16 18 17 14 12 12 12 13 14 16 17 17
Wind_Direction
146 137 130 125 117 112 110 110 113 113 113 110 107 99 80 65 7 335 326 314 319 314 310 313 248 264 311 286 222 212 92 55 54 50 52 13 349 346 328 340 359 6 124 157 155 174 170 59 43 41 55 55 16 357 61 31 11 277 218 138 144 160 178 170 176 172 97 161 165 170 186 200 191 177 182 180 221 232 233 230 227 226 235 243 246 223 194 190
139 133 128 121 115 109 106 108 110 112 112 111 107 94 43 343 327 322 314 306 307 300 304 298 263 273 285 273 238 206 186 76 47 43 27 358 352 348 329 348 355 6 140 206 202 223 200 88 34 24 50 61 360 6 108 358 1 350 129 89 141 131 123 155 168 163 181 171 164 171 189 202 200 179 168 209 220 215 233 232 223 233 234 228 226 222 212 203
133 129 124 117 113 108 108 113 114 116 113 112 104 8 322 324 321 320 306 297 301 296 307 298 283 283 275 247 205 176 173 186 45 23 355 353 357 354 343 353 5 34 63 61 194 218 143 96 65 40 57 61 21 15 24 1 350 346 326 119 125 102 82 137 186 171 254 173 164 168 180 205 210 175 166 218 230 211 225 228 215 225 230 221 211 208 209 207
132 129 123 118 115 114 117 119 117 114 103 89 346 325 327 329 324 314 300 297 303 304 36 346 324 306 250 184 177 177 188 105 49 349 340 351 356 2 357 355 11 52 70 64 100 126 117 90 65 51 65 75 37 39 31 6 344 30 347 77 106 151 129 149 207 171 290 209 174 157 156 207 202 169 190 217 233 221 225 226 219 222 226 220 204 198 203 210
136 127 124 123 123 125 124 121 110 89 30 327 316 327 337 344 344 335 320 312 198 117 79 58 52 64 100 134 170 183 224 31 15 336 338 347 355 7 356 352 5 59 96 68 85 107 111 82 70 56 56 64 17 67 43 13 9 61 25 26 81 173 135 126 206 330 256 189 167 154 165 195 157 191 219 219 230 231 226 227 225 227 230 225 201 193 199 210
134 128 131 131 133 134 124 106 32 336 309 312 326 5 44 70 54 37 17 10 140 122 88 70 60 73 88 101 142 163 210 89 344 334 335 343 2 1 352 358 9 58 152 102 65 112 107 52 82 65 66 56 27 57 38 8 274 90 90 21 46 275 69 102 140 181 186 167 162 167 176 162 174 218 222 222 237 241 84 200 236 237 234 230 200 193 197 210
131 135 139 138 141 133 5 326 318 307 304 331 28 87 105 93 59 51 47 66 133 128 99 83 61 76 91 92 97 83 65 48 337 332 336 347 4 343 7 29 36 54 127 86 42 105 123 88 100 94 91 87 60 70 44 51 81 94 114 120 73 62 55 74 84 155 175 172 157 154 204 194 211 228 201 233 242 244 246 231 245 260 234 214 206 198 203 214
139 143 144 151 182 321 314 311 304 315 341 25 92 117 118 90 72 71 66 70 124 138 113 97 30 33 95 94 88 69 54 353 331 335 344 349 4 9 12 40 77 111 78 69 64 108 132 109 122 154 90 79 88 94 60 87 74 69 112 136 141 91 85 102 116 137 144 147 111 251 226 222 225 259 290 249 246 243 244 238 222 244 227 215 221 212 211 220
148 157 181 256 297 310 301 313 315 325 350 86 115 128 123 109 103 86 72 70 93 159 190 169 53 342 110 125 105 69 28 336 333 340 0 10 22 31 352 60 97 167 69 59 67 103 219 164 140 180 110 95 109 104 279 245 65 71 119 136 129 110 109 133 131 120 141 152 167 238 240 238 215 299 268 250 254 250 240 237 224 216 221 224 223 223 222 226
179 221 247 267 271 315 322 317 317 329 54 115 130 142 140 138 128 85 71 73 74 163 190 182 174 155 111 93 80 72 359 343 2 14 43 51 57 68 72 74 81 103 77 59 55 35 267 159 131 118 107 98 78 38 321 315 107 112 120 114 105 117 125 151 151 123 153 156 188 250 262 256 161 251 258 241 251 243 223 230 222 216 227 229 223 227 227 231
206 197 164 147 125 344 327 325 329 16 106 129 145 153 153 152 124 62 81 86 86 97 102 103 102 96 87 71 73 71 359 6 33 44 63 80 84 75 72 79 91 97 88 71 56 52 92 118 121 123 112 105 91 68 53 92 116 123 129 109 94 124 136 158 162 127 194 151 127 264 276 262 161 206 248 240 140 148 230 238 223 221 231 233 230 230 228 232
167 155 150 150 36 332 330 348 23 109 122 136 147 152 155 159 66 71 100 104 101 98 93 91 91 88 79 67 63 57 29 35 40 48 60 72 74 67 66 75 83 94 100 89 64 71 107 120 105 80 75 145 125 86 107 148 137 137 179 116 112 161 152 162 152 88 270 171 108 272 279 249 188 217 242 235 144 173 255 259 244 232 234 236 235 235 232 235
161 162 161 163 320 325 355 55 106 124 132 142 151 165 172 17 73 102 103 111 119 110 83 75 95 91 76 64 47 32 40 43 49 57 63 70 73 72 72 74 77 85 96 96 85 87 111 127 99 87 72 116 123 104 126 166 254 144 258 74 138 201 162 154 122 98 245 176 95 265 283 261 200 224 238 204 140 238 259 260 258 247 239 239 236 238 239 238
170 170 172 285 316 5 90 102 123 126 135 147 153 159 66 70 114 116 109 109 111 106 93 87 91 84 76 79 51 39 37 41 53 55 60 70 72 73 73 73 77 80 86 91 92 93 98 103 100 99 64 51 106 141 121 121 285 129 270 290 127 255 158 135 139 204 217 155 307 258 269 277 262 238 219 163 196 234 258 258 257 252 244 243 241 241 244 241
177 179 232 307 297 101 100 112 119 125 133 140 139 104 102 112 117 118 118 112 103 99 95 86 79 77 80 98 63 36 36 39 39 35 43 63 67 72 72 70 73 76 80 83 90 92 91 93 85 84 80 64 125 147 120 103 61 31 268 192 140 268 196 138 149 221 242 139 204 248 266 276 284 285 164 144 203 211 246 256 255 254 250 250 249 246 248 248
189 202 303 284 134 102 107 114 109 117 124 118 112 112 108 103 105 114 121 119 107 98 90 76 73 81 89 94 29 23 33 24 18 25 42 50 52 61 44 60 73 77 80 71 78 84 59 61 65 56 98 140 129 77 119 144 127 66 310 275 171 260 280 169 143 162 297 216 214 233 266 283 281 300 84 138 196 202 239 257 258 259 258 256 254 251 251 253
207 250 320 144 127 111 119 113 106 108 115 123 122 124 119 106 105 109 114 120 110 96 89 74 75 84 72 49 338 16 6 352 3 18 36 41 43 39 15 31 17 24 109 69 53 52 26 41 83 229 65 69 22 334 236 194 211 151 289 265 195 243 273 279 166 116 239 226 235 227 243 266 266 268 257 211 188 209 257 265 266 267 265 261 256 255 253 253
213 290 171 143 125 120 122 116 115 113 116 121 119 116 110 102 109 108 106 121 116 88 83 52 41 95 66 33 353 335 309 314 1 10 4 23 33 35 34 35 311 277 192 98 26 16 1 33 98 95 61 37 35 6 318 337 321 3 321 282 293 241 235 272 268 97 155 220 243 240 242 261 267 268 265 249 214 227 258 264 269 270 266 264 259 255 254 252
207 250 165 147 133 128 127 125 122 119 116 112 109 106 96 85 88 84 64 74 86 30 77 6 350 102 83 32 316 309 317 314 354 10 3 348 335 6 29 23 355 39 108 84 23 10 352 48 47 58 42 7 18 9 333 335 325 342 344 306 303 290 263 270 279 76 322 261 250 245 247 263 270 271 271 265 227 225 256 260 263 264 262 263 257 253 251 249
214 171 159 147 140 140 138 136 130 127 117 103 113 111 101 84 75 63 38 51 63 26 74 35 13 80 83 48 309 318 332 307 33 23 10 354 315 289 5 357 30 64 51 356 24 4 332 72 65 18 337 329 333 331 307 308 298 280 310 311 292 288 287 284 107 107 209 275 264 248 254 265 270 271 272 272 244 232 255 254 253 255 254 255 250 252 250 248
202 161 158 147 148 153 148 147 145 141 100 2 198 121 114 155 86 124 36 58 57 360 58 92 66 77 77 89 344 336 283 125 54 24 12 4 322 301 350 342 39 58 42 322 322 315 303 62 51 346 299 299 329 64 222 259 289 293 297 314 303 274 283 284 126 125 159 259 269 267 277 271 269 271 269 269 255 244 248 244 247 250 247 250 247 253 255 254
181 163 159 150 155 160 157 160 164 159 15 347 141 105 106 138 122 135 138 92 67 2 84 112 66 61 52 70 10 349 274 52 36 17 7 0 356 14 346 16 62 59 21 317 226 88 60 55 25 357 219 152 93 106 226 250 266 289 330 304 301 306 291 279 129 72 131 235 282 318 303 280 272 269 264 262 253 245 244 238 245 250 247 251 248 252 258 263
170 165 161 153 161 166 165 172 178 172 56 99 113 106 120 130 129 135 109 106 102 8 35 46 54 31 12 47 6 351 36 41 16 8 360 354 20 35 353 45 60 64 10 11 48 83 73 68 63 142 160 116 76 130 235 260 247 251 285 293 299 355 324 277 69 35 222 233 294 316 303 282 273 267 260 260 255 254 257 240 243 248 248 255 260 267 263 262
164 166 161 157 163 169 172 176 179 152 94 111 113 117 131 130 127 133 80 116 91 49 48 55 97 40 24 19 354 353 77 51 336 351 357 2 51 339 3 49 44 66 32 10 44 81 76 60 87 142 156 347 298 224 240 268 270 242 235 253 287 311 292 272 324 334 265 224 271 301 292 276 272 287 278 263 245 252 248 241 246 235 233 246 263 271 257 251
162 167 161 159 164 169 172 169 163 136 114 120 123 130 134 119 54 31 124 152 44 48 95 109 123 34 12 341 357 2 146 49 21 335 353 14 22 297 102 61 345 68 19 336 51 86 73 56 131 164 102 333 276 281 268 264 295 287 212 227 278 298 291 281 309 326 286 232 172 306 301 285 300 300 283 37 290 256 192 224 258 244 229 234 249 257 247 238
161 167 161 159 166 168 166 165 165 154 138 140 150 152 138 97 36 15 298 109 48 3 360 17 11 13 5 346 354 342 192 39 18 356 7 16 11 194 141 28 24 74 203 291 65 106 73 82 166 334 309 266 277 272 220 241 301 324 166 273 296 293 284 282 295 292 285 299 176 187 292 288 297 290 281 3 316 284 254 228 252 255 248 235 242 257 254 248
160 168 166 163 169 171 166 171 180 175 171 186 182 180 165 64 7 352 251 71 38 355 353 352 337 354 357 348 337 314 138 347 311 53 25 10 5 202 84 16 89 67 53 266 358 125 133 152 163 121 246 249 273 268 188 198 282 315 55 8 299 263 265 271 277 251 280 326 294 178 237 275 289 288 318 12 305 288 282 241 227 247 269 262 255 266 267 268
160 168 171 168 173 176 171 166 170 181 226 189 186 191 195 290 343 337 149 69 22 351 20 345 334 349 347 341 350 34 109 316 333 40 1 8 18 243 107 44 100 84 50 280 323 70 171 213 199 205 227 242 275 352 144 184 264 349 34 304 267 265 266 249 260 257 277 318 276 168 176 267 277 265 146 72 290 287 288 283 278 301 311 306 293 288 284 281
160 170 174 173 177 180 179 164 160 179 197 170 173 184 202 295 324 315 90 84 352 351 102 317 334 348 341 334 6 45 33 343 34 335 332 14 33 34 90 61 112 115 69 310 300 359 157 113 223 231 250 290 349 43 152 195 267 1 75 279 229 190 245 216 247 271 251 279 269 156 168 276 288 288 242 170 267 275 270 283 311 311 312 304 300 300 297 295
159 166 174 176 177 180 177 128 137 156 159 154 161 179 225 307 292 114 57 59 328 353 298 328 343 324 334 349 25 23 17 13 342 318 337 25 20 38 84 290 116 130 73 9 216 233 106 120 216 250 322 339 3 41 158 255 329 355 236 268 242 200 196 183 217 263 253 256 219 102 359 295 295 296 275 210 204 198 255 279 301 306 306 301 302 302 296 294
159 162 170 171 170 175 165 111 135 147 143 142 153 184 287 345 64 95 66 48 315 353 344 2 355 327 355 18 14 359 5 4 343 350 17 8 359 24 48 322 344 184 272 343 217 226 177 189 188 33 12 8 331 243 133 59 20 297 265 281 280 242 196 201 193 182 252 272 135 118 306 273 257 271 270 296 303 257 223 262 278 283 287 289 288 288 286 287
155 158 163 162 166 170 137 132 154 148 136 137 141 44 359 39 42 66 44 313 330 16 25 2 340 3 4 350 6 357 339 356 12 21 15 356 19 25 20 13 351 323 14 16 324 323 204 161 79 26 51 30 318 278 174 140 164 259 275 292 304 304 298 261 256 213 261 290 121 170 293 257 245 260 268 282 282 261 218 227 248 263 271 272 271 273 281 291
145 158 156 146 162 152 113 131 145 138 134 130 101 47 73 82 56 60 265 310 20 18 12 311 304 322 317 311 18 360 299 341 8 15 348 317 54 54 47 22 335 320 360 358 334 335 12 112 77 286 107 49 324 309 310 282 293 301 308 326 316 322 330 294 293 291 282 287 133 157 310 264 258 266 253 254 267 262 222 221 233 246 254 258 268 283 291 288
128 149 139 114 113 111 103 116 124 126 131 78 38 57 64 69 68 259 274 313 20 346 323 303 312 305 328 22 12 335 282 74 2 346 329 332 37 48 66 41 12 341 295 315 7 343 338 356 32 37 328 350 318 315 328 310 305 327 357 331 299 299 301 292 309 303 297 310 262 178 258 244 252 329 276 246 255 257 242 239 242 248 251 259 279 287 282 279
118 117 107 91 84 88 89 101 112 106 59 45 62 65 67 82 221 227 264 295 294 326 301 275 322 304 52 40 21 352 353 39 10 360 356 7 31 20 18 16 8 357 299 325 35 357 290 282 56 72 266 276 197 175 215 287 280 116 125 274 277 303 295 281 303 300 302 315 276 212 235 240 256 307 296 286 285 264 252 250 259 272 282 302 292 280 279 291
99 90 80 65 58 64 70 87 101 67 27 64 72 58 70 127 260 209 62 339 328 337 308 284 6 360 8 353 24 47 48 276 349 354 24 30 357 335 318 291 349 352 349 350 325 272 290 280 68 111 215 187 348 181 149 297 300 148 241 272 329 340 293 264 272 113 192 274 271 228 261 270 291 295 288 329 326 297 293 296 278 284 300 310 288 283 301 312
81 77 61 38 34 42 53 69 72 47 63 70 78 75 53 173 18 8 1 350 352 321 316 5 19 359 1 335 337 350 329 249 332 337 48 41 203 160 231 231 149 323 332 329 274 346 300 285 284 193 230 141 135 205 160 287 302 288 280 349 64 268 263 255 277 266 235 261 269 255 274 285 306 300 316 6 345 336 332 312 287 297 316 322 312 307 310 310
78 86 55 22 18 34 37 38 37 56 85 61 76 101 36 38 70 333 318 5 211 287 356 55 32 347 301 325 329 320 319 333 355 355 16 349 56 128 190 13 92 52 337 301 293 54 285 282 289 155 266 27 143 224 248 165 259 297 306 5 344 269 251 208 259 285 283 279 272 274 285 279 247 246 306 347 344 341 333 320 317 325 330 331 321 312 308 306
67 108 46 6 11 36 26 33 45 47 78 61 65 103 37 358 181 219 184 147 220 216 44 110 219 272 203 249 302 301 329 347 345 352 24 9 28 114 102 10 49 80 21 302 309 18 274 290 311 144 224 306 185 215 251 141 143 247 263 254 27 285 272 269 291 295 280 273 275 298 308 292 244 197 280 328 334 334 329 324 325 325 326 325 316 310 310 309
37 110 28 354 8 53 53 67 64 37 66 75 81 126 61 243 198 181 189 308 273 271 7 198 203 332 232 291 323 321 354 354 324 339 10 12 17 75 59 13 341 102 88 312 327 297 271 259 283 265 208 281 296 140 311 313 213 224 235 235 230 230 268 292 277 253 282 276 277 285 286 287 283 171 309 318 322 327 329 326 321 320 320 320 317 313 312 310
45 107 358 346 353 131 63 63 56 27 79 81 87 115 85 300 68 82 89 341 322 348 8 116 44 19 343 348 5 315 332 338 352 339 346 28 15 44 52 8 338 34 245 226 139 305 333 229 278 307 305 297 316 47 9 324 299 279 267 260 263 252 268 281 267 183 19 287 278 287 280 281 286 28 321 310 316 326 332 328 315 312 314 314 313 309 308 304
53 93 337 345 16 121 72 62 36 17 90 63 50 90 51 31 44 42 65 61 56 329 41 78 36 32 39 349 355 7 325 311 359 337 309 16 271 303 43 12 330 327 279 306 69 37 341 274 275 284 278 293 347 83 59 331 307 279 263 260 315 292 255 272 280 331 349 258 251 295 269 271 281 302 297 294 309 324 320 306 300 305 307 307 306 307 305 296
55 99 356 354 359 76 59 75 27 21 66 81 72 93 32 52 78 254 32 37 357 299 29 75 3 17 49 334 312 10 337 258 271 339 298 263 259 349 38 13 326 294 263 312 108 111 324 267 276 283 272 267 122 143 148 139 194 244 244 209 205 236 173 277 290 340 301 275 269 263 252 269 284 291 276 287 301 307 300 295 294 299 304 305 308 312 309 302
90 128 22 15 14 270 72 82 125 77 79 181 125 83 58 58 34 16 27 22 25 10 44 72 6 22 49 344 315 7 351 341 346 37 333 255 232 62 55 26 352 347 19 3 359 342 297 234 290 308 309 321 327 271 198 210 232 253 249 188 174 191 78 102 234 178 253 266 266 265 262 267 280 292 296 297 303 306 306 305 300 300 308 314 318 319 313 306
77 106 356 22 37 61 86 69 131 125 125 138 88 50 11 87 39 350 335 47 55 283 3 72 256 359 54 218 158 123 339 357 11 35 344 257 234 67 53 18 3 35 333 332 324 296 293 297 286 297 317 328 321 317 318 313 306 282 264 227 157 167 162 227 259 250 246 244 239 253 262 267 280 292 296 297 302 307 306 307 312 318 320 318 316 312 308 306
72 56 321 2 32 54 70 13 56 103 133 121 83 25 3 74 73 251 218 65 58 271 8 58 232 264 72 306 359 345 304 3 349 317 297 261 260 73 59 10 5 195 320 325 292 278 299 270 250 247 261 274 281 287 295 309 306 291 287 290 244 160 192 234 255 251 247 238 243 252 257 268 279 287 293 298 306 309 307 315 329 335 330 321 309 303 308 311
94 66 11 322 12 39 57 40 31 46 95 84 69 24 6 1 345 174 183 76 47 251 332 48 273 355 356 344 352 315 291 315 212 261 253 251 288 324 127 30 329 283 324 325 211 211 300 261 251 241 245 251 263 276 284 290 281 276 284 292 279 166 178 206 228 243 248 261 265 258 258 268 279 286 294 299 304 307 312 325 335 332 324 318 315 318 322 322
64 111 281 317 35 23 32 34 24 39 48 47 89 48 9 6 28 35 350 137 103 272 321 64 55 36 18 322 334 311 315 309 241 251 268 264 324 327 281 76 332 307 333 297 187 167 283 267 250 231 259 267 268 268 271 274 270 268 275 282 281 248 193 209 241 250 243 240 256 263 270 279 285 288 290 293 299 307 314 322 326 320 317 320 322 324 325 325
68 101 321 355 61 101 35 349 341 46 50 50 75 53 22 32 43 30 295 324 25 2 357 4 10 16 48 215 295 308 325 324 290 284 283 287 321 317 309 321 167 332 338 271 209 155 239 250 216 242 278 284 279 268 259 258 269 283 274 267 270 264 237 226 247 255 251 249 257 267 277 283 283 281 282 288 297 302 304 316 328 326 323 322 321 323 324 325
116 130 138 62 76 97 88 340 331 41 48 35 43 55 36 32 32 20 335 6 13 19 4 347 348 351 315 184 247 265 270 279 273 267 239 322 314 284 288 313 48 56 3 344 13 243 235 257 73 50 290 288 283 276 259 244 247 277 281 276 270 267 260 245 248 255 255 253 259 269 277 277 273 272 278 289 297 300 310 330 336 329 320 315 317 322 324 324
93 119 137 113 77 11 351 29 16 46 49 20 14 44 39 37 31 333 276 19 10 1 342 335 335 321 271 237 248 264 290 257 261 277 300 306 302 308 305 321 353 348 323 56 15 278 251 266 47 23 302 287 282 290 295 292 272 261 272 276 265 257 256 249 240 225 218 239 268 274 267 271 281 291 304 308 307 310 319 330 331 321 313 313 317 322 323 324
96 101 111 100 78 1 342 18 12 55 72 22 7 24 357 28 85 231 204 141 209 323 297 306 317 294 270 284 276 306 339 292 286 314 331 280 284 292 277 264 270 282 263 177 339 312 248 264 293 20 292 283 299 314 310 309 301 279 258 253 257 274 285 274 259 225 199 204 256 261 257 285 307 318 317 310 307 310 317 323 323 317 311 311 318 322 321 322